Starlink 11333

operational
NORAD ID: 62273 Int'l Des: 2024-237 Owner: SPXS Country: US Constellation: starlink
LEOCIRCULAR

Starlink 11333について

説明を読み込み中...

リアルタイム位置

3D地球を読み込み中...

次回通過

高度履歴

Altitude vs Time

uPlot chart will show altitude changes over time

軌道要素

1 62273U 24237G 25349.98883090 .00167034 00000-0 12770-2 0 9996
2 62273 43.0009 201.5498 0002023 280.6338 79.4302 15.70880583 59884
Epoch: Dec 15, 2025 • Age: 31 hours

現在のステータス

高度 358.2 km
速度 7.70 km/s
衛星直下点 -15.85°S, 161.51°W
打ち上げ日 Dec 8, 2024
運用期間 1 years
タイプ internet

技術仕様

分類 Payload
質量 960.00 kg
乾燥質量 910.00 kg
総質量 960.00 kg
長さ 0.30 m
直径 4.10 m
スパン 29.00 m
形状 Box + pan
製造者 SPXS
バスタイプ Starlink V2MD
フェーズステータス In Orbit
所有者/国 SPXS/US

大規模コンステレーション

Loading constellations...